EHI
0 0 0 0 0 0 0 0 0 0 0 0 0 0 0 0 0 0 0 0 2 4 3 1 0 0 0 0 0 0 0 0 1 1 1 0 0 0 0 0 0 0 0
0 0 0 0 0 0 0 0 0 0 0 0 0 0 0 0 0 0 0 0 1 3 3 1 0 0 0 0 0 0 0 0 0 0 0 0 0 0 0 0 0 0 0
0 0 0 0 0 0 0 0 0 0 0 0 0 0 0 0 0 0 0 0 0 1 1 0 0 0 0 0 0 0 0 0 0 0 0 0 0 0 0 0 0 0 0
0 0 0 0 0 0 0 0 0 0 0 0 0 0 0 0 0 0 0 0 0 0 0 0 0 0 0 0 0 0 0 0 0 0 0 0 0 0 0 0 0 0 0
0 0 0 0 0 0 0 0 0 0 0 0 0 0 0 0 0 0 0 0 0 0 0 1 0 0 0 0 0 0 0 0 0 0 0 0 0 0 0 0 0 0 0
0 0 0 0 0 0 0 0 0 0 0 0 0 0 0 0 0 0 0 0 0 0 0 0 0 0 0 0 0 0 0 0 0 0 0 0 0 0 0 0 0 0 0
0 0 0 0 0 0 0 0 0 0 0 0 0 0 0 0 0 0 0 0 0 0 0 0 0 0 0 0 0 0 0 0 0 0 0 0 0 0 0 0 0 0 0
0 0 0 0 0 0 0 0 0 0 0 0 0 0 0 0 0 0 0 0 0 0 0 0 0 0 0 0 0 0 0 0 0 0 0 0 0 0 0 0 0 0 0
0 0 0 0 0 0 0 0 0 0 0 0 0 0 0 0 0 0 0 0 0 0 0 0 0 0 0 0 0 0 0 0 0 0 0 0 0 0 0 0 0 0 0
0 0 0 0 0 0 0 0 0 0 0 0 0 0 0 0 0 0 0 0 0 0 0 0 0 0 0 0 0 0 0 0 0 0 0 0 0 0 0 0 0 0 0
0 0 0 0 0 0 0 0 0 0 0 0 0 0 0 0 0 0 0 0 0 0 0 0 0 0 0 0 0 0 0 0 0 0 0 0 0 0 0 0 0 0 0
0 0 0 0 0 0 0 0 0 0 0 0 0 0 0 0 0 0 0 0 0 0 0 0 0 0 0 0 0 0 0 0 0 0 0 0 0 0 0 0 0 0 0
0 0 0 0 0 0 0 0 0 0 0 0 0 0 0 0 0 0 0 0 0 0 0 0 0 0 0 0 0 0 0 0 0 0 0 0 0 0 0 0 0 0 0
0 0 0 0 0 0 0 0 0 0 0 0 0 0 0 0 0 0 0 0 0 0 0 0 0 0 0 0 0 0 0 0 0 0 0 0 0 0 0 0 0 0 0
0 0 0 0 0 0 0 0 0 0 0 0 0 0 0 0 0 0 0 0 0 0 0 0 0 0 0 0 0 0 0 0 0 0 0 0 0 0 0 0 0 0 0
0 0 0 0 0 0 0 0 0 0 0 0 0 0 0 0 0 0 0 0 0 0 0 0 0 0 0 0 0 0 0 0 0 0 0 0 0 0 0 0 0 0 0
0 0 0 0 0 0 0 0 0 0 0 0 0 0 0 0 0 0 0 0 0 0 0 0 0 0 0 0 0 0 0 0 0 0 0 0 0 0 0 0 0 0 0
0 0 0 0 0 0 0 0 0 0 0 0 0 0 0 0 0 0 0 0 0 0 0 0 0 0 0 0 0 0 0 0 0 0 0 0 0 0 0 0 0 0 0
0 0 0 0 0 0 0 0 0 0 0 0 0 0 0 0 0 0 0 0 0 0 0 0 0 0 0 0 0 0 0 0 0 0 0 0 0 0 0 0 0 0 0
0 0 0 0 0 0 0 0 0 0 0 0 0 0 0 0 0 0 0 0 0 0 0 0 0 0 0 0 0 0 0 0 0 0 0 0 0 0 0 0 0 0 0
0 0 0 0 0 0 0 0 0 0 0 0 0 0 0 0 0 0 0 0 0 0 0 0 0 0 0 0 0 0 0 0 0 0 0 0 0 0 0 0 0 0 0
0 0 0 0 0 0 0 0 0 0 0 0 0 0 0 0 0 0 0 0 0 0 0 0 0 0 0 0 0 0 0 0 0 0 0 0 0 0 0 0 0 0 0
0 0 0 0 0 0 0 0 0 0 0 0 0 0 0 0 0 0 0 0 0 0 0 0 0 0 0 0 0 0 0 0 0 0 0 0 0 0 0 0 0 0 0
0 0 0 0 0 0 0 0 0 0 0 0 0 0 0 0 0 0 0 0 0 0 0 0 0 0 0 0 0 0 0 0 0 0 0 0 0 0 0 0 0 0 0
0 0 0 0 0 0 0 0 0 0 0 0 0 0 0 0 0 0 0 0 0 0 0 0 0 0 0 0 0 0 0 0 0 0 0 0 0 0 0 0 0 0 0
0 0 0 0 0 0 0 0 0 0 0 0 0 0 0 0 0 0 0 0 0 0 0 0 0 0 0 0 0 0 0 0 0 0 0 0 0 0 0 0 0 0 0
Wind_Speed
1 1 1 2 2 1 1 2 2 3 3 3 3 3 3 3 3 3 2 8 9 11 12 11 11 11 11 11 11 11 11 11 10 10 10 10 9 10 10 10 10 10 10
1 1 2 2 2 2 1 1 2 2 2 2 2 2 3 2 2 3 3 5 9 9 10 12 11 11 11 12 11 11 12 11 11 11 11 10 10 9 9 9 10 10 10
2 1 2 2 2 2 1 1 1 1 1 1 2 3 2 2 2 3 3 3 3 7 9 11 11 11 11 12 12 12 12 12 11 12 11 11 10 10 9 9 10 10 10
2 2 1 2 2 2 1 1 1 1 1 1 1 2 2 1 2 3 3 3 2 3 6 9 9 10 11 12 12 13 13 12 12 12 12 11 11 10 10 10 10 10 10
2 1 1 2 2 1 1 2 1 0 1 1 2 2 1 2 2 2 2 3 3 3 3 5 8 9 10 11 12 13 13 13 13 13 13 12 11 11 11 10 10 10 10
1 1 1 2 1 1 2 1 1 1 1 1 1 1 1 2 1 2 2 2 2 3 3 3 3 5 9 10 11 12 13 14 14 14 14 13 12 12 12 11 11 11 11
1 1 1 2 1 0 1 1 0 1 1 0 1 2 2 1 1 1 1 1 2 2 3 3 3 2 3 8 10 11 12 13 14 15 14 14 13 12 12 12 12 12 11
2 1 1 1 1 1 1 1 1 0 1 1 1 1 2 3 2 1 1 2 2 1 2 3 3 3 3 2 5 9 10 11 13 14 14 14 13 13 13 13 13 13 12
2 1 1 1 1 0 1 1 0 1 0 1 1 2 2 1 2 2 1 1 1 1 2 2 3 3 4 3 3 6 8 9 11 14 14 14 14 14 14 14 14 13 13
2 1 1 1 1 0 1 1 1 1 2 0 1 0 1 2 1 1 2 1 1 1 2 1 2 2 3 3 4 6 8 8 10 12 13 14 14 14 15 14 14 14 13
2 2 1 1 1 1 1 0 0 1 2 2 1 0 1 1 1 1 1 2 2 1 1 1 1 2 2 3 3 5 8 8 8 9 11 12 13 14 15 15 15 15 15
2 3 2 1 1 0 1 0 0 1 1 2 1 1 2 1 1 1 1 1 1 1 1 0 0 1 1 2 3 5 7 8 8 8 9 9 11 13 14 15 16 16 16
2 3 2 1 1 1 1 0 0 1 1 2 2 1 1 1 2 2 2 1 0 1 1 1 1 0 1 1 1 3 4 6 7 8 8 8 8 10 12 13 14 15 16
2 2 2 2 1 1 0 1 1 0 1 1 1 2 1 1 1 2 2 2 1 1 1 1 1 1 1 0 1 2 2 5 6 7 7 7 7 8 9 10 11 12 13
2 1 1 1 1 1 1 1 1 0 1 1 1 1 1 1 1 1 2 2 3 2 0 1 1 1 1 0 0 1 2 4 5 6 7 7 8 8 8 8 9 9 9
1 1 1 1 1 1 1 1 1 0 1 0 1 1 1 0 1 1 1 1 2 3 1 1 1 1 1 1 1 0 1 3 4 5 6 7 7 7 7 7 7 8 8
1 1 1 1 1 1 1 1 1 1 1 1 1 1 0 1 1 1 1 1 2 2 2 1 1 0 0 1 1 1 1 1 2 5 5 6 6 7 7 7 7 7 8
1 0 0 1 1 1 1 1 1 1 1 1 1 1 0 1 1 1 1 1 1 2 2 1 1 1 0 0 1 1 1 1 2 4 5 6 6 6 6 7 7 7 8
1 0 1 1 0 0 1 1 1 1 1 1 1 1 1 2 2 1 1 1 1 1 2 1 0 1 1 1 1 1 1 1 2 2 3 4 5 6 6 7 8 8 9
1 1 1 1 1 1 1 1 1 2 1 1 1 1 1 2 2 2 2 1 2 2 2 1 1 0 0 1 1 1 2 2 2 2 2 2 4 5 6 7 8 9 9
2 2 1 0 0 1 1 1 1 2 2 2 1 1 1 2 2 2 2 2 2 2 2 1 1 0 0 1 0 1 1 2 2 1 1 1 1 2 3 5 7 8 9
2 2 2 1 1 1 2 4 3 2 1 1 1 1 1 1 1 2 3 3 3 3 3 2 1 1 1 1 1 0 0 1 2 2 1 2 1 2 2 2 5 7 8
3 2 2 2 2 2 2 3 4 2 2 1 0 0 1 1 1 1 2 3 2 1 4 4 3 2 2 2 1 0 1 1 2 2 1 2 2 2 2 3 5 6 6
3 3 3 3 2 2 3 3 4 3 2 1 0 0 0 1 1 1 2 2 2 2 1 2 2 3 3 2 2 2 1 1 2 2 0 1 2 2 2 2 4 4 4
4 4 3 4 3 3 3 4 5 3 2 1 1 0 1 0 0 3 3 3 2 2 2 3 2 1 1 1 2 2 1 1 1 2 1 0 1 2 2 2 3 4 4
5 4 4 4 4 3 4 5 6 3 3 1 0 1 1 1 2 4 3 3 2 1 2 3 4 5 3 3 3 2 1 1 0 1 2 1 1 1 2 2 2 2 3
Wind_Direction
338 335 326 321 307 297 280 269 256 252 245 242 242 242 239 230 228 220 239 227 216 206 198 192 190 188 186 185 185 183 179 175 174 172 169 166 162 160 159 157 154 154 153
13 7 355 339 321 301 276 256 253 247 240 231 246 254 243 232 233 216 228 230 219 211 210 202 196 193 192 191 189 186 182 180 179 179 175 171 167 165 163 163 161 160 161
24 22 360 336 316 314 313 309 300 272 257 248 250 252 249 238 227 225 220 217 217 219 218 210 203 200 199 196 193 190 185 183 183 182 181 178 174 172 171 170 169 169 166
23 19 355 324 317 333 342 335 337 338 299 276 261 254 245 244 230 228 215 206 204 218 223 217 211 209 205 200 196 194 191 187 186 185 184 181 179 178 178 177 177 175 174
14 16 328 313 330 348 344 324 353 316 278 288 268 251 241 239 242 230 211 204 204 209 216 221 218 214 210 203 200 197 196 192 190 189 187 184 183 182 182 181 182 180 180
351 350 313 318 339 355 337 327 313 327 250 261 293 309 272 251 230 206 204 200 205 205 202 209 209 218 213 206 204 202 199 197 194 194 192 189 188 187 187 187 187 187 188
328 345 321 326 342 350 306 309 319 334 320 354 43 353 329 293 251 214 193 190 211 206 193 195 192 197 212 210 208 206 204 202 199 198 196 194 192 192 192 192 193 194 195
326 337 336 318 315 327 341 344 44 54 342 49 101 70 356 350 332 271 193 196 209 200 208 205 196 197 203 193 208 207 207 206 205 203 200 198 196 196 197 197 199 201 202
303 317 327 302 295 259 271 290 163 144 152 327 102 130 134 239 308 326 289 220 198 193 219 208 203 205 205 193 194 209 209 209 211 211 207 203 201 202 202 203 204 205 205
292 303 318 310 299 280 267 269 182 163 140 128 329 69 151 164 133 338 338 328 253 193 210 211 198 197 198 189 201 203 207 209 214 214 213 211 209 208 208 208 208 208 208
302 302 313 323 312 284 265 274 171 145 147 154 155 142 74 63 108 135 332 334 348 319 229 221 191 176 186 185 196 205 205 210 216 218 217 215 215 215 214 213 213 213 214
304 306 322 323 299 279 255 244 185 157 161 157 154 146 144 141 165 145 163 279 316 308 341 21 96 160 172 181 206 204 204 209 216 222 224 222 221 221 221 221 219 219 220
286 292 311 307 301 279 258 177 119 149 165 158 164 166 163 174 167 153 144 153 35 334 8 23 17 74 121 131 220 210 214 216 222 225 225 226 226 226 226 228 229 226 225
253 267 284 286 289 301 353 103 107 169 145 161 173 161 158 186 164 157 155 144 103 16 15 354 354 25 36 84 249 205 230 225 226 228 227 228 229 229 229 229 232 234 233
260 281 286 302 310 337 20 81 101 101 110 138 146 142 142 180 152 155 151 148 144 139 284 312 345 343 355 40 191 210 231 235 233 228 226 227 227 225 227 229 231 234 237
285 324 337 348 353 356 28 64 69 76 93 66 132 130 131 160 134 143 144 138 141 146 166 248 249 275 327 12 45 353 260 259 238 230 228 229 227 226 229 231 232 234 236
280 296 336 13 26 27 37 65 53 102 93 70 83 135 182 168 137 130 119 116 121 129 147 286 300 310 24 33 350 324 294 275 256 243 236 232 228 226 229 233 236 238 239
258 240 77 58 53 59 61 85 81 96 117 116 114 113 101 123 122 123 119 120 122 130 143 166 329 348 349 298 288 292 309 281 259 249 241 234 231 230 230 235 240 242 242
219 313 104 108 84 69 71 76 95 85 110 134 134 136 136 111 106 110 120 131 129 112 125 140 255 337 347 357 19 353 349 327 303 273 250 239 236 237 236 240 243 244 244
174 174 159 181 191 148 103 74 79 80 80 82 106 137 140 140 142 136 124 138 136 115 114 127 145 327 338 338 50 7 346 337 322 324 309 271 249 246 244 244 247 248 248
191 186 168 174 186 148 151 130 109 104 90 71 51 59 102 141 156 147 141 153 143 134 130 131 138 61 352 4 342 313 326 323 316 323 325 305 280 266 258 254 253 253 250
199 178 179 180 203 221 156 142 134 115 112 102 66 29 23 38 79 93 112 130 152 157 162 158 171 185 241 237 242 266 302 3 321 320 354 311 312 280 275 259 258 257 254
194 192 200 187 205 245 178 153 142 130 127 130 92 23 30 37 58 87 72 67 62 105 169 164 176 207 214 216 184 212 242 237 251 272 346 305 312 290 282 289 281 263 259
197 201 205 200 207 244 206 170 151 124 107 102 197 195 141 342 5 127 107 79 47 29 77 153 178 212 222 214 188 185 208 276 293 297 202 276 306 297 302 308 309 297 288
198 203 201 195 200 245 225 185 151 128 114 80 6 48 149 157 299 136 116 101 65 22 44 74 115 125 135 148 143 110 63 49 339 317 352 98 305 307 313 315 323 333 324
198 196 200 201 200 220 218 188 162 145 145 159 11 352 28 117 118 127 128 125 108 15 26 32 35 29 34 43 64 115 154 145 247 314 332 7 313 343 329 314 324 340 339